Showing default

TRAAC, 205

Orbit data source: Space-Track

TRAAC, 205 is a payload satellite owned by USN BuWeps (US) in LEO that was launched on Wed, 15 Nov 1961 UTC via a THOR ABLESTAR launch vehicle from the Air Force Eastern Test Range (AFETR). Payload-class satellites include a variety of spacecraft equipped with specific instruments for various scientific and technological missions. These include communications satellites like Starlink; space stations such as the ISS; scientific satellites like the Hubble; Earth observation satellites from companies like Planet Labs, Umbra, and HawkEye 360; GPS; miniature CubeSats for education and research; and military/defense satellites.

Loading next visibility...
Identifier
205, 1961-031B
Orbit
LEO
Country
Flag of USUS
Related business
Manufacturer
APL
Mission
Spacecraft
Bus & Motor
TRANSIT 4, Unknown motor
Mass
105 kg wet, 105 kg dry
Launch date (UTC)
1961-11-15 (65 years ago)
Launch vehicle
THOR ABLESTAR
Launch site
Air Force Eastern Test Range (AFETR)
Object type
Payload
Rocket body
Debris
Shape & HBR
DISK + ANT, 5.0 m
Radar Cross Section
Medium (>0.1 m² and <1 m²)

Expand to show TLE details & history
Last TLE update: 12 hours ago

TLE from 12 hours ago
0 TRAAC
1 00205U 61031B   26208.59968003  .00000060  00000-0  44757-4 0  9993
2 00205  32.4425 316.2771 0102310 279.0003  79.9051 13.62576100224587
Epoch: 2026-07-27T14:23Z
TLE epoch observation values (Epoch: 2026-07-27T14:23:32.354Z)
Latitude
0.00001°
Longitude
155.11137°
Altitude
1,012.563 km
Speed
7.354 km/s
True Right ascension
21h 05m 06s
True Declination
0° 00' 00"
Sunlit
Object was in full shadow at epoch
Visualization orbit readout
Latitude
Unknown
Longitude
Unknown
Altitude
Unknown
Speed
Unknown
Apparent Right ascension
Unknown
Apparent Declination
Unknown
Sunlit
N/A
Visualization observer readout
Local Sidereal Time
15:25:44
Azimuth
Unknown
Elevation
Unknown
Doppler factor
Unknown
Orbital elements
Apogee altitude
1,105.521 km
Perigee altitude
953.941 km
Semi-major axis
7,407.868 km
Eccentricity
0.01023
Inclination
32.4425°
RAAN
316.2771°
Arg. of periapsis
279.0003°
True anomaly
81.06185°
Mean anomaly
79.9051°
Eccentric anomaly
80.48323°
Mean motion
3.40411 °/min
Orbital period
105.75 mins
BSTAR
0.000044757
Loading maneuver chart data...
Computing Atmospheric mass density...
Loading historical data...
Loading historical data...
Loading historical data...
Loading historical data...
Loading historical data...
Loading historical data...
Loading historical data...
Other satellites on launch #31 in the year 1961 (1961-11-15 UTC)

Documentation

Showing up to 5 results
|